Location: Pont-Saint-Esprit
(44.2549°N, 4.6474°E)
Time: 11:36:35
(UTC+00:00)

Daily predictions for brighter satellites

Satellite Brightness Start Highest point End
(mag) Time Altitude Azimuth Time Altitude Azimuth Time Altitude Azimuth
BREEZE-M DEB (TANK) 3.7 18:39:43 10° WNW 18:42:16 51° NNE 18:47:31 10° E
Cosmos 1703 3.8 18:40:54 10° N 18:44:35 38° ENE 18:48:12 10° SSE
Okean-O 3.0 18:40:57 10° S 18:45:21 70° WSW 18:49:48 10° NNW
Cosmos 1346 Rocket 2.8 18:42:33 10° N 18:46:27 63° ENE 18:50:20 10° SSE
CZ-4B R/B 3.9 18:45:29 10° N 18:48:30 29° WNW 18:51:30 10° SW
Cosmos 2278 3.8 18:45:40 10° NNW 18:51:25 90° NE 18:57:07 10° SSE
Cosmos 1602 Rocket 4.4 18:48:51 10° NNE 18:52:43 31° ENE 18:56:35 10° SE
USA 186 2.4 18:49:46 10° SE 18:52:50 38° ENE 18:55:55 10° N
Cosmos 2233 Rocket 4.0 18:46:42 10° S 18:52:57 84° E 18:59:17 10° N
SJ-6B 3.6 18:49:45 10° SE 18:53:01 29° ENE 18:56:18 10° N
USA 276 2.1 18:51:52 10° WNW 18:55:01 82° SSW 18:58:11 10° ESE
YAOGAN 1 3.8 18:51:15 10° S 18:55:24 46° W 18:59:36 10° NNW
Lacrosse 4 Rocket 1.7 18:54:53 10° NNW 18:59:13 56° ENE 19:03:23 10° SE
ERS-2 2.0 18:56:22 10° NNE 19:00:03 80° ESE 19:03:41 10° SSW
BREEZE-M DEB (TANK) 4.3 18:57:27 10° S 19:01:12 15° SSE 19:03:21 10° ESE
SL-8 R/B 3.7 18:58:08 10° WSW 19:02:58 89° SSE 19:07:50 10° ENE
Meteor 1-21 Rocket 4.3 18:57:28 10° NNW 19:03:07 86° W 19:08:39 10° S
Okean 1-7 Rocket 3.8 18:59:32 10° N 19:04:06 82° W 19:08:39 10° S
Cosmos 1315 Rocket 2.8 19:01:43 10° S 19:05:47 78° E 19:09:50 10° NNE
BREEZE-M DEB (TANK) 3.0 19:05:22 10° SSW 19:08:19 48° SE 19:16:25 10° ENE
Cosmos 292 Rocket 3.9 19:03:57 10° NNW 19:08:46 59° ENE 19:13:34 10° SSE
Cosmos 1544 Rocket 3.7 19:08:16 10° S 19:12:41 80° W 19:17:06 10° N
USA 238 DEB 4.2 19:06:25 10° NNW 19:13:26 51° NE 19:19:55 14° ESE
USA 238 4.3 19:06:31 10° NNW 19:13:32 51° NE 19:20:00 14° ESE
Cosmos 1626 Rocket 3.5 19:11:13 10° N 19:15:35 76° E 19:19:59 10° SSE
DMSP B5D2-2 4.1 19:11:50 10° NNE 19:17:05 89° E 19:22:21 10° SSW
Cosmos 1300 3.2 19:15:55 10° SSE 19:19:25 36° E 19:22:57 10° NNE
Cosmos 1048 Rocket 4.0 19:14:16 10° S 19:19:26 65° ESE 19:24:43 10° NNE
Cosmos 2360 Rocket 3.4 19:15:44 10° N 19:20:28 26° NE 19:24:02 15° E
NOSS 3-2 (A) 4.2 19:13:44 10° NW 19:21:13 68° NE 19:28:45 14° SE
USA 32 4.0 19:17:43 10° S 19:22:53 69° E 19:28:06 10° N
Cosmos 468 4.5 19:18:14 10° S 19:23:30 70° ESE 19:28:49 10° NNE
Resurs 01 Rocket 2.8 19:21:05 16° ESE 19:23:34 25° ENE 19:27:13 10° NNE
SL-16 R/B 2.4 19:20:48 10° NNW 19:26:25 58° ENE 19:30:59 15° SE
Cosmos 2034 Rocket 4.4 19:23:18 10° SSE 19:29:02 42° E 19:34:50 10° NNE
CZ-4C R/B 2.5 19:25:23 10° S 19:29:38 33° ESE 19:34:35 10° NE
OBJECT-B 0.7 19:29:34 11° SSE 19:32:39 87° ENE 19:35:53 10° N
Cosmos 1452 Rocket 3.7 19:28:05 10° NNW 19:33:23 75° WSW 19:38:37 10° SSE
Cosmos 1184 Rocket 3.0 19:33:29 10° N 19:36:35 47° ENE 19:37:56 27° SE
Cosmos 1980 Rocket 3.7 19:33:01 10° NW 19:38:05 34° WSW 19:43:06 10° SSW
USA 215 3.3 19:32:57 17° ESE 19:38:10 81° NE 19:44:44 10° NW
Cosmos 1464 Rocket 4.0 19:35:52 10° S 19:42:12 76° E 19:48:29 10° N
Cosmos 2219 Rocket 4.0 19:38:27 10° N 19:42:13 18° NE 19:44:53 13° ENE
ATLAS 3B R/B 4.4 19:38:34 10° NNW 19:43:48 22° NNE 19:49:08 10° ENE
CZ-2C R/B 4.4 19:39:41 10° N 19:44:17 33° WNW 19:48:52 10° SW
Meteor 1-11 4.3 19:39:55 10° N 19:45:46 90° E 19:51:32 10° S
CENTAUR R/B 3.3 19:38:20 10° NW 19:46:25 69° NE 19:52:44 21° SE
IRS-1A Rocket 4.2 19:44:07 10° SSE 19:49:38 89° WSW 19:55:16 10° NNW
Nadezhda 4 Rocket 4.0 19:45:37 10° N 19:51:55 64° E 19:56:44 18° SSE
Resurs 1-3 3.5 19:51:12 19° SSE 19:54:19 84° ENE 19:58:44 10° NNW
Cosmos 2344 4.3 19:49:08 10° SSE 19:55:06 25° ESE 20:01:00 10° ENE
Cosmos 1455 4.1 20:00:06 16° ENE 20:00:06 16° ENE 20:01:24 10° NE
Cosmos 1953 Rocket 4.0 19:54:47 10° N 19:58:58 41° ENE 20:00:00 35° ESE
Cosmos 2333 Rocket 3.5 19:54:51 10° N 19:59:38 26° NE 20:01:44 21° E
MOS 1 4.4 19:54:09 10° S 19:59:42 76° WSW 20:05:22 10° NNW
In-Cosmos 22 Rocket 4.4 19:54:05 10° N 19:59:47 55° ENE 20:02:48 28° SE
Cosmos 2058 4.4 20:05:04 10° NNE 20:08:06 23° ENE 20:08:06 23° ENE
Ariane Rocket 3.4 20:05:35 13° S 20:10:06 60° WSW 20:15:07 10° NNW
Cosmos 2026 Rocket 4.4 20:04:29 10° N 20:10:13 42° ENE 20:12:05 33° ESE
Cosmos 1302 Rocket 4.2 20:05:37 10° NNW 20:10:49 54° ENE 20:12:32 38° ESE
ATLAS 5 CENTAUR R/B 1.5 20:07:32 10° SW 20:11:28 75° NW 20:15:54 10° NE
SL-27 R/B 2.3 20:10:19 35° S 20:11:42 80° ESE 20:15:14 10° NNE
IGS 5A 3.5 20:10:55 47° SE 20:11:50 61° ENE 20:15:57 10° N
Cosmos 1634 Rocket 4.4 20:09:58 31° SE 20:12:15 42° E 20:18:05 10° NNE
Cosmos 2228 3.0 20:09:14 13° S 20:13:12 85° W 20:17:35 10° N
Atlas Centaur 2 3.9 20:06:46 10° WSW 20:13:50 30° S 20:16:22 25° SSE
CZ-2C R/B 3.8 20:09:48 10° NNE 20:14:10 49° E 20:14:41 46° ESE
Lacrosse 5 rocket 1.2 20:13:40 10° SW 20:17:41 82° SE 20:20:53 17° NE
Cosmos 2322 Rocket 2.3 20:12:28 10° NNW 20:18:10 74° WSW 20:21:07 30° S
ARIANE 5 R/B 3.4 20:19:51 34° ENE 20:19:56 34° ENE 20:23:57 10° N
NOSS 3-4 (A) 3.3 20:14:29 10° SSW 20:20:06 56° ESE 20:26:06 10° NE
NOSS 3-4 (C) 3.3 20:14:33 10° SSW 20:20:12 56° ESE 20:26:12 10° NE
Cosmos 1825 Rocket 3.6 20:17:08 10° NNW 20:21:29 74° W 20:23:15 35° S
Cosmos 1441 Rocket 4.4 20:20:01 10° NNW 20:23:41 40° W 20:25:51 21° SSW
NOSS 3-2 (C) 4.1 20:18:25 10° NW 20:26:04 86° SW 20:30:27 33° SSE
Cosmos 1892 2.5 20:23:46 10° N 20:27:29 80° ENE 20:27:29 80° ENE
CARTOSAT-1 4.5 20:29:06 33° ENE 20:29:06 33° ENE 20:32:37 10° N
ATLAS 2AS CENTAUR R/B 3.1 20:26:19 10° S 20:33:53 52° ESE 20:41:23 10° NE
Cosmos 1408 3.0 20:33:08 10° N 20:35:58 52° N 20:35:58 52° N
Lacrosse 4 Rocket 4.0 20:34:50 10° WNW 20:37:24 15° WSW 20:39:54 10° SW
COSMOS 2428 3.6 20:33:25 10° N 20:38:39 35° NE 20:39:28 33° ENE
Terra 3.2 20:40:21 25° NE 20:40:21 25° NE 20:43:46 10° N
Cosmos 1992 Rocket 4.5 20:38:15 10° N 20:43:14 43° ENE 20:43:22 43° ENE
SL-8 R/B 4.4 20:41:05 10° W 20:45:49 52° N 20:47:20 37° NE
BREEZE-M DEB (TANK) 4.5 20:43:11 10° W 20:47:41 62° NNW 21:05:57 10° ENE
SPOT 1/Viking Rocket 3.4 20:47:22 64° SSE 20:48:14 87° ENE 20:53:30 10° NNW
Cosmos 1833 4.1 20:43:44 10° SSW 20:49:21 86° WNW 20:55:03 10° NNE
SPOT 3 Rocket 4.2 20:49:58 32° SSW 20:52:02 50° W 20:57:06 10° NNW
Cosmos 2333 4.1 20:47:08 10° NNW 20:52:56 71° ENE 20:53:36 64° ESE
BREEZE-M DEB (TANK) 4.4 20:56:23 10° W 20:57:06 16° WSW 20:57:06 16° WSW
Resurs 01 Rocket 3.0 20:58:39 28° SW 20:59:54 34° W 21:03:58 10° NNW
USA 245 3.8 21:00:20 72° SW 21:00:34 74° WSW 21:04:55 10° NNW
Cosmos 1092 Rocket 4.3 20:55:24 10° NNW 21:01:38 64° W 21:03:59 38° SSW
Cosmos 1825 3.4 20:59:05 10° N 21:01:31 38° NNW 21:01:31 38° NNW
Cosmos 2360 Rocket 2.6 20:59:17 10° NNW 21:04:48 55° WSW 21:05:50 48° SSW
SL-16 R/B 4.1 21:05:48 10° NW 21:10:03 22° W 21:12:53 15° SW
Exosat Rocket 3.8 21:06:31 10° NNW 21:13:44 78° ENE 21:14:03 75° E
ERS-1 Rocket 3.1 21:16:15 68° N 21:16:15 68° N 21:20:41 10° NNW
Cosmos 2058 Rocket 4.1 21:17:40 42° W 21:17:48 42° WNW 21:21:59 10° N
CZ-4C R/B 3.3 21:13:11 10° WSW 21:17:56 41° NW 21:23:38 10° NNE
Spot 2 Rocket 3.8 21:20:45 60° W 21:20:45 60° W 21:25:47 10° NNW
Meteor 2-1 Rocket 4.3 21:20:17 69° SW 21:20:52 77° W 21:26:46 10° N
USA 215 4.3 21:20:17 29° SSW 21:21:35 31° SW 21:27:15 10° WNW
Cosmos 405 Rocket 4.5 21:18:25 10° N 21:20:35 30° N 21:20:35 30° N
Cosmos 2219 Rocket 2.2 21:21:17 10° NNW 21:26:36 78° NNW 21:26:36 78° NNW
SPOT 5 3.6 21:30:18 44° NNW 21:30:18 44° NNW 21:33:27 10° NNW
Cosmos 1455 4.4 21:34:56 24° NW 21:34:56 24° NW 21:37:12 10° NNW
ATLAS 3B R/B 2.8 21:28:52 10° NNW 21:35:51 65° NE 21:36:24 63° ENE
CENTAUR R/B 4.2 21:29:34 10° NW 21:36:57 36° WSW 21:39:56 29° SSW
Cosmos 2237 Rocket 3.2 21:36:10 10° NNW 21:40:36 37° NE 21:40:36 37° NE
Cosmos 2279 Rocket 4.2 21:42:32 62° WSW 21:43:03 64° W 21:49:14 10° N
Cosmos 2333 Rocket 2.7 21:38:38 10° NNW 21:43:45 56° W 21:43:45 56° W
Meteor 2-3 Rocket 4.3 21:46:18 10° N 21:50:46 52° NNE 21:50:46 52° NNE
Cosmos 2227 Rocket 4.5 22:00:49 14° NE 22:00:49 14° NE 22:01:36 10° NE
Lacrosse 5 rocket 3.6 21:53:52 10° WNW 21:56:46 24° NW 21:56:46 24° NW
Cosmos 1655 Rocket 4.1 21:51:50 10° N 21:57:32 71° NW 21:57:32 71° NW
Cosmos 2297 Rocket 4.1 22:09:15 19° NE 22:09:15 19° NE 22:10:54 10° NE
Cosmos 2344 3.8 22:01:17 10° SW 22:08:41 64° NW 22:16:36 10° NE
Cosmos 2266 Rocket 4.3 22:04:05 10° N 22:09:40 66° NW 22:09:40 66° NW
SeaSat 1 3.9 22:08:20 10° NNE 22:11:11 33° N 22:11:11 33° N
Terra 3.7 22:19:14 27° NW 22:19:14 27° NW 22:21:50 10° NNW
Cosmos 909 Rocket 4.4 22:18:55 60° NNW 22:18:55 60° NNW 22:24:41 10° NNE
COSMOS 2428 4.0 22:17:39 10° NW 22:21:30 34° WNW 22:21:30 34° WNW
ATLAS 2AS CENTAUR R/B 3.8 22:17:27 10° WSW 22:25:02 47° NW 22:32:29 10° NNE
SL-16 R/B 3.7 22:24:15 10° N 22:28:02 31° NNE 22:28:02 31° NNE
USA 281 3.9 23:12:45 48° NNE 23:12:45 48° NNE 23:17:59 10° NNW
Cosmos 2237 Rocket 4.2 23:20:25 10° NW 23:22:26 20° NW 23:22:26 20° NW
ATLAS 3B R/B 4.3 23:20:10 10° NW 23:23:39 24° W 23:23:39 24° W
Cosmos 2227 Rocket 3.8 23:42:35 31° NNW 23:42:35 31° NNW 23:45:57 10° NNE
Cosmos 2297 Rocket 3.9 23:51:01 27° NNW 23:51:01 27° NNW 23:54:40 10° N
Cosmos 2263 Rocket 4.1 23:56:34 22° NE 23:56:34 22° NE 23:58:39 10° NE
